Date,TemperatureHighF,TemperatureAvgF,TemperatureLowF,DewpointHighF,DewpointAvgF,DewpointLowF,HumidityHigh,HumidityAvg,HumidityLow,PressureMaxIn,PressureMinIn,WindSpeedMaxMPH,WindSpeedAvgMPH,GustSpeedMaxMPH,PrecipitationSumIn
2014-1-1,45,33,25,34,28,25,99,84,50,30.46,30.21,7,0,7,0.01
2014-1-2,44,38,24,44,35,12,99,90,62,30.22,29.72,16,1,16,0.14
2014-1-3,30,23,17,14,9,5,83,57,36,30.52,29.95,25,3,25,0.00
2014-1-4,38,26,14,32,21,12,95,83,54,30.54,30.33,7,0,8,0.00
2014-1-5,47,40,34,46,39,32,100,98,89,30.33,29.79,10,0,10,0.23
2014-1-6,43,26,6,43,18,-3,100,71,33,30.26,29.72,20,2,20,0.20
2014-1-7,24,12,2,9,2,-5,84,65,46,30.59,30.26,7,1,8,0.00
2014-1-8,46,24,9,24,16,7,94,74,33,30.70,30.55,7,0,7,0.00
2014-1-9,48,32,22,34,24,20,97,75,41,30.62,30.49,8,0,8,0.05
2014-1-10,47,40,34,47,40,34,100,99,97,30.53,30.11,3,0,3,1.09
2014-1-11,54,48,40,53,47,35,100,95,68,30.13,29.66,16,1,16,1.77
2014-1-12,53,40,30,36,32,28,98,75,45,30.22,29.85,9,1,9,0.00
2014-1-13,53,43,30,42,36,29,99,79,54,30.20,29.96,6,1,12,0.12
2014-1-14,55,44,29,47,38,27,100,82,42,30.02,29.81,7,0,8,0.16
2014-1-15,40,31,26,36,29,22,99,91,62,30.05,29.94,10,1,10,0.01
2014-1-16,41,29,18,23,19,15,96,67,39,30.12,29.97,9,1,9,0.00
2014-1-17,46,34,25,27,20,13,79,56,27,30.07,29.87,22,1,22,0.00
2014-1-18,39,28,18,17,12,4,78,54,23,30.15,29.99,17,1,17,0.00
2014-1-19,49,36,26,27,20,13,85,54,34,30.07,29.98,15,1,15,0.00
2014-1-20,61,44,23,28,22,7,92,48,24,30.03,29.88,26,2,26,0.00
2014-1-21,47,33,21,35,24,12,92,73,40,29.94,29.65,17,3,17,0.00
2014-1-22,33,22,12,12,6,1,73,53,26,30.17,29.93,15,3,15,0.00
2014-1-23,36,21,12,15,9,-1,91,61,29,30.52,30.16,16,2,16,0.00
2014-1-24,29,16,4,1,-2,-7,71,46,24,30.69,30.34,14,2,16,0.00
2014-1-25,36,27,17,26,12,-3,72,53,34,30.33,29.81,12,2,16,0.00
2014-1-26,51,37,22,30,23,17,82,58,31,30.01,29.90,13,1,13,0.00
2014-1-27,57,42,26,38,29,8,84,62,41,30.10,29.86,14,2,14,0.00
2014-1-28,26,22,18,22,14,5,93,73,47,30.28,30.09,10,3,10,0.00
2014-1-29,28,18,10,14,6,0,87,63,30,30.43,30.22,9,2,9,0.08
2014-1-30,39,19,1,18,9,-1,92,70,30,30.49,30.31,8,0,8,0.02
2014-1-31,56,31,13,28,18,11,94,67,24,30.34,30.21,5,0,7,0.02
2014-2-1,58,36,21,37,26,14,96,72,18,30.31,30.17,7,0,7,0.00
2014-2-2,65,45,27,52,40,26,99,85,61,30.20,29.99,5,0,12,0.05
2014-2-3,63,51,36,57,48,35,100,91,65,30.22,29.84,16,3,16,0.86
2014-2-4,41,39,35,40,38,34,100,95,89,30.34,30.10,9,1,9,0.27
2014-2-5,60,44,33,50,38,26,100,80,41,30.15,29.87,18,2,18,0.41
2014-2-6,39,32,26,29,25,21,88,75,61,30.35,30.14,13,2,14,0.00
2014-2-7,50,36,27,35,29,24,92,75,53,30.39,30.25,8,1,8,0.00
2014-2-8,54,38,30,38,32,26,95,78,51,30.31,30.14,8,0,8,0.00
2014-2-9,56,39,28,40,33,27,99,81,50,30.21,30.01,12,1,12,0.00
2014-2-10,36,34,31,35,33,30,98,95,88,30.26,30.10,8,2,8,0.10
2014-2-11,34,32,30,32,30,27,98,93,85,30.37,30.23,9,2,9,0.04
2014-2-12,31,26,22,29,23,18,98,91,72,30.40,29.90,13,4,13,0.00
2014-2-13,41,32,26,34,30,24,99,91,72,29.90,29.69,20,2,20,0.45
2014-2-14,56,36,18,36,28,16,99,75,35,29.93,29.72,13,1,13,0.15
2014-2-15,45,36,27,37,24,11,99,64,26,30.12,29.62,24,4,24,0.04
2014-2-16,56,39,26,32,27,21,88,65,36,30.20,30.06,17,1,17,0.00
2014-2-17,51,38,26,37,30,24,97,78,50,30.35,30.19,9,0,9,0.01
2014-2-18,64,45,29,39,34,28,100,71,32,30.28,30.10,6,1,8,0.01
2014-2-19,69,53,42,59,48,37,100,84,48,30.11,29.97,6,0,13,0.61
2014-2-20,67,55,43,58,52,42,100,90,71,30.14,29.91,15,1,15,0.00
2014-2-21,62,53,32,58,41,11,98,70,16,30.06,29.76,21,2,21,1.31
2014-2-22,64,43,30,34,28,18,95,62,20,30.26,30.06,9,0,9,0.00
2014-2-23,69,45,28,40,31,26,95,65,27,30.17,29.96,14,1,14,0.00
2014-2-24,56,41,29,39,30,22,99,69,37,30.19,29.99,15,2,15,0.00
2014-2-25,62,42,27,39,28,23,90,63,31,30.16,29.94,14,2,14,0.00
2014-2-26,46,35,26,28,24,19,80,64,44,29.99,29.80,12,2,14,0.00
2014-2-27,52,32,17,20,15,7,94,56,21,30.07,29.87,14,2,14,0.00
2014-2-28,50,32,17,21,16,12,88,57,25,30.34,30.07,8,0,8,0.00
2014-3-1,58,41,28,38,30,20,87,66,45,30.37,30.23,9,1,9,0.00
2014-3-2,71,51,31,51,42,29,97,74,46,30.28,29.94,13,1,13,0.00
2014-3-3,57,46,32,54,43,30,99,89,66,30.16,29.75,11,3,17,0.18
2014-3-4,46,34,28,34,27,21,97,76,53,30.30,30.15,9,2,9,0.00
2014-3-5,60,41,28,35,30,24,89,67,31,30.25,30.10,12,1,12,0.00
2014-3-6,40,34,31,35,26,18,96,73,48,30.33,30.11,13,4,17,0.21
2014-3-7,53,41,34,44,38,33,99,90,69,30.10,29.99,8,2,11,0.41
2014-3-8,68,46,29,45,35,28,100,71,28,30.19,30.04,9,1,9,0.01
2014-3-9,66,48,32,46,36,31,97,67,38,30.15,30.04,14,1,14,0.00
2014-3-10,74,48,27,43,34,26,98,67,18,30.12,29.89,16,1,16,0.00
2014-3-11,78,53,29,46,38,29,99,65,22,29.93,29.72,12,1,12,0.00
2014-3-12,71,55,36,59,46,21,99,72,48,29.75,29.33,20,3,23,0.07
2014-3-13,45,36,28,22,12,3,61,39,19,30.30,29.75,18,4,18,0.00
2014-3-14,58,40,21,28,21,14,86,51,23,30.37,30.14,13,1,13,0.00
2014-3-15,69,54,38,40,34,26,80,50,27,30.15,30.00,11,1,11,0.00
2014-3-16,47,44,41,46,42,35,99,92,70,30.05,29.73,10,2,10,0.73
2014-3-17,41,36,32,41,36,32,99,98,95,29.96,29.76,9,3,9,0.30
2014-3-18,48,39,32,44,37,32,99,94,82,30.18,29.92,11,2,11,0.00
2014-3-19,50,44,39,46,43,38,100,94,82,30.20,30.03,8,1,8,0.02
2014-3-20,66,43,32,47,34,17,100,76,15,30.15,30.02,11,1,15,0.01
2014-3-21,64,44,26,35,28,23,97,61,22,30.24,30.09,11,1,11,0.00
2014-3-22,72,54,36,45,38,30,89,58,31,30.13,29.98,11,1,11,0.00
2014-3-23,51,44,38,47,39,27,98,84,56,30.18,29.97,15,3,15,0.25
2014-3-24,54,41,26,32,27,24,92,61,37,30.28,30.06,9,1,15,0.00
2014-3-25,45,36,28,38,28,12,98,75,43,30.13,29.88,19,2,19,0.05
2014-3-26,50,34,21,20,13,4,70,45,22,30.37,30.11,12,2,15,0.00
2014-3-27,59,40,23,30,23,18,88,56,24,30.47,30.29,6,1,13,0.00
2014-3-28,53,50,39,53,48,30,100,93,65,30.31,30.11,10,0,10,0.19
2014-3-29,63,54,44,59,52,34,100,92,67,30.12,29.66,20,2,20,0.63
2014-3-30,55,46,36,34,28,21,73,51,29,30.14,29.78,29,8,29,0.00
2014-3-31,76,52,29,37,29,21,89,49,15,30.24,30.10,6,1,10,0.00
2014-4-1,81,59,40,47,39,34,89,54,23,30.17,30.01,10,1,10,0.00
2014-4-2,82,59,37,47,38,24,96,53,17,30.14,30.02,14,1,14,0.00
2014-4-3,81,64,50,58,48,35,82,59,25,30.09,29.89,12,1,12,0.00
2014-4-4,74,64,56,60,53,45,89,70,42,29.91,29.74,14,1,14,0.00
2014-4-5,65,54,42,46,40,35,93,61,35,30.07,29.87,13,2,13,0.00
2014-4-6,61,49,38,44,39,34,93,70,51,30.18,30.04,7,1,9,0.02
2014-4-7,54,48,44,54,47,43,100,98,92,30.08,29.71,8,1,9,3.22
2014-4-8,57,49,39,54,43,36,100,80,53,29.81,29.65,20,3,20,0.01
2014-4-9,65,48,35,45,35,23,99,68,23,30.18,29.81,19,2,19,0.00
2014-4-10,70,51,30,44,36,29,98,62,31,30.33,30.18,11,1,11,0.00
2014-4-11,72,58,40,47,41,37,91,55,30,30.25,30.08,14,1,14,0.00
2014-4-12,79,60,42,52,45,40,94,62,29,30.24,30.11,6,1,8,0.00
2014-4-13,77,63,46,57,52,44,98,70,45,30.16,30.03,13,1,13,0.00
2014-4-14,65,61,59,61,58,54,99,89,72,30.03,29.78,6,1,10,0.56
2014-4-15,60,52,34,60,48,24,100,88,63,30.06,29.64,29,4,29,0.99
2014-4-16,62,42,30,31,25,19,80,53,25,30.45,30.06,18,3,23,0.00